Weather History for KY51 - November, 2012

Change the Weather History Date:

Friday, November 16, 2012

  Actual Average (KLSE) Record (KLSE)
Temperature  
Mean Temperature 37 °F 36 °F  
Max Temperature 46 °F 44 °F 70 °F (1953)
Min Temperature 28 °F 28 °F 2 °F (1959)
Degree Days  
Heating Degree Days 28 29  
Month to date heating degree days 402  
Since 1 July heating degree days 1030  
Cooling Degree Days 0 0  
Month to date cooling degree days 0  
Year to date cooling degree days 782  
Moisture  
Dew Point 29 °F    
Average Humidity 77    
Maximum Humidity 100    
Minimum Humidity 57    
Precipitation  
Precipitation 0.00 in 0.06 in 1.51 in (1996)
Month to date precipitation 1.08  
Year to date precipitation 30.77  
Snow  
Snow 0.00 in 0.10 in 4.20 in (1961)
Month to date snowfall 1.2  
Since 1 July snowfall 1.4  
Snow Depth -    
Sea Level Pressure  
Sea Level Pressure 30.41 in    
Wind  
Wind Speed 6 mph (East)    
Max Wind Speed 12 mph    
Max Gust Speed -    
Visibility 9 miles    
Events      
T = Trace of Precipitation, MM = Missing Value Source: NWS Daily Summary

Daily Weather History Graph

Daily Weather History Graph

Search for Another Location

Airport or City:

Trip Planner

Search our weather history database for the weather conditions in past years. The results will help you decide how hot, cold, wet, or windy it might be!

Date:

Astronomy

Nov. 16, 2012 Rise Set
Actual Time 6:59 AM CST 4:37 PM CST
Civil Twilight 6:28 AM CST 5:08 PM CST
Nautical Twilight 5:53 AM CST 5:42 PM CST
Astronomical Twilight 5:19 AM CST 6:16 PM CST
Moon 9:55 AM CST (11/16) 7:35 PM CST (11/16)
Length of Visible Light 10h 39m
Length of Day
9h 37m
Waxing Crescent, 12% of the Moon is Illuminated
Nov 16
Waxing Crescent
Nov 20
First Quarter
Nov 28
Full
Dec 6
Last Quarter
Dec 13
New

Hourly Weather History & Observations

Time (CST) Temp. Windchill Dew Point Humidity Pressure Visibility Wind Dir Wind Speed Gust Speed Precip Events Conditions
12:15 AM 33.8 °F 27.7 °F 30.2 °F 87% 30.37 in 10.0 mi North 6.9 mph - N/A   Clear
12:35 AM 33.8 °F 26.4 °F 30.2 °F 87% 30.37 in 10.0 mi North 9.2 mph - N/A   Clear
12:55 AM 32.0 °F 25.6 °F 28.4 °F 87% 30.37 in 10.0 mi North 6.9 mph - N/A   Clear
1:15 AM 32.0 °F 25.6 °F 28.4 °F 87% 30.38 in 10.0 mi North 6.9 mph - N/A   Clear
1:35 AM 32.0 °F 25.6 °F 28.4 °F 87% 30.39 in 10.0 mi North 6.9 mph - N/A   Clear
1:55 AM 32.0 °F 26.4 °F 26.6 °F 80% 30.39 in 10.0 mi NNE 5.8 mph - N/A   Clear
2:15 AM 32.0 °F 27.5 °F 26.6 °F 80% 30.40 in 10.0 mi North 4.6 mph - N/A   Clear
2:35 AM 32.0 °F 26.4 °F 26.6 °F 80% 30.40 in 10.0 mi NNE 5.8 mph - N/A   Clear
2:55 AM 32.0 °F 26.4 °F 26.6 °F 80% 30.40 in 10.0 mi North 5.8 mph - N/A   Clear
3:15 AM 30.2 °F 24.3 °F 26.6 °F 86% 30.40 in 10.0 mi NNE 5.8 mph - N/A   Clear
3:35 AM 30.2 °F 23.4 °F 24.8 °F 80% 30.41 in 10.0 mi NNE 6.9 mph - N/A   Clear
3:55 AM 30.2 °F 25.4 °F 24.8 °F 80% 30.40 in 10.0 mi North 4.6 mph - N/A   Clear
4:15 AM 30.2 °F 26.7 °F 23.0 °F 75% 30.40 in 10.0 mi North 3.5 mph - N/A   Clear
4:35 AM 30.2 °F 26.7 °F 23.0 °F 75% 30.40 in 10.0 mi North 3.5 mph - N/A   Clear
4:55 AM 30.2 °F 25.4 °F 23.0 °F 75% 30.40 in 10.0 mi North 4.6 mph - N/A   Clear
5:15 AM 30.2 °F 25.4 °F 23.0 °F 75% 30.40 in 10.0 mi North 4.6 mph - N/A   Clear
5:35 AM 28.4 °F 22.2 °F 23.0 °F 80% 30.40 in 10.0 mi NNE 5.8 mph - N/A   Clear
5:55 AM 28.4 °F 24.6 °F 23.0 °F 80% 30.41 in 10.0 mi North 3.5 mph - N/A   Clear
6:15 AM 28.4 °F 23.3 °F 21.2 °F 74% 30.41 in 10.0 mi NNE 4.6 mph - N/A   Clear
6:35 AM 28.4 °F 22.2 °F 21.2 °F 74% 30.41 in 10.0 mi NE 5.8 mph - N/A   Clear
6:55 AM 28.4 °F 23.3 °F 23.0 °F 80% 30.42 in 10.0 mi NE 4.6 mph - N/A   Clear
7:15 AM 28.4 °F 22.2 °F 23.0 °F 80% 30.42 in 10.0 mi ENE 5.8 mph - N/A   Clear
7:35 AM 28.4 °F 22.2 °F 23.0 °F 80% 30.43 in 10.0 mi ENE 5.8 mph - N/A   Clear
7:55 AM 30.2 °F 24.3 °F 24.8 °F 80% 30.43 in 10.0 mi ENE 5.8 mph - N/A   Clear
8:15 AM 32.0 °F 26.4 °F 26.6 °F 80% 30.43 in 10.0 mi ENE 5.8 mph - N/A   Clear
8:35 AM 32.0 °F 26.4 °F 26.6 °F 80% 30.43 in 10.0 mi ENE 5.8 mph - N/A   Clear
8:55 AM 33.8 °F 27.0 °F 28.4 °F 81% 30.44 in 10.0 mi East 8.1 mph - N/A   Clear
9:15 AM 33.8 °F 27.0 °F 28.4 °F 81% 30.44 in 10.0 mi East 8.1 mph - N/A   Clear
9:35 AM 35.6 °F 29.9 °F 28.4 °F 75% 30.45 in 10.0 mi East 6.9 mph - N/A   Clear
9:55 AM 35.6 °F 29.9 °F 30.2 °F 81% 30.45 in 10.0 mi ENE 6.9 mph - N/A   Clear
10:15 AM 37.4 °F 32.8 °F 30.2 °F 75% 30.45 in 10.0 mi East 5.8 mph - N/A   Clear
10:35 AM 39.2 °F 37.0 °F 30.2 °F 70% 30.46 in 10.0 mi ESE 3.5 mph - N/A   Clear
10:55 AM 41.0 °F 38.0 °F 30.2 °F 65% 30.45 in 10.0 mi ESE 4.6 mph - N/A   Clear
11:15 AM 41.0 °F 39.0 °F 30.2 °F 65% 30.45 in 10.0 mi ESE 3.5 mph - N/A   Clear
11:35 AM 41.0 °F - 30.2 °F 65% 30.44 in 10.0 mi Calm Calm - N/A   Clear
11:55 AM 42.8 °F - 30.2 °F 61% 30.44 in 10.0 mi Calm Calm - N/A   Clear
12:15 PM 42.8 °F - 32.0 °F 66% 30.44 in 10.0 mi Calm Calm - N/A   Clear
12:35 PM 44.6 °F - 32.0 °F 61% 30.44 in 10.0 mi Calm Calm - N/A   Clear
12:55 PM 46.4 °F - 32.0 °F 57% 30.44 in 10.0 mi Calm Calm - N/A   Clear
1:15 PM 46.4 °F - 32.0 °F 57% 30.43 in 10.0 mi Calm Calm - N/A   Clear
1:35 PM 46.4 °F 45.2 °F 32.0 °F 57% 30.43 in 10.0 mi South 3.5 mph - N/A   Clear
1:55 PM 46.4 °F - 32.0 °F 57% 30.43 in 10.0 mi Calm Calm - N/A   Clear
2:15 PM 46.4 °F - 32.0 °F 57% 30.42 in 10.0 mi Calm Calm - N/A   Clear
2:35 PM 46.4 °F 45.2 °F 32.0 °F 57% 30.42 in 10.0 mi South 3.5 mph - N/A   Clear
2:55 PM 46.4 °F 45.2 °F 32.0 °F 57% 30.42 in 10.0 mi South 3.5 mph - N/A   Clear
3:15 PM 46.4 °F 45.2 °F 32.0 °F 57% 30.41 in 10.0 mi SE 3.5 mph - N/A   Clear
3:35 PM 46.4 °F 44.3 °F 32.0 °F 57% 30.41 in 10.0 mi SSE 4.6 mph - N/A   Clear
3:55 PM 44.6 °F 43.1 °F 32.0 °F 61% 30.41 in 10.0 mi SSE 3.5 mph - N/A   Clear
4:15 PM 44.6 °F 43.1 °F 32.0 °F 61% 30.40 in 10.0 mi SSE 3.5 mph - N/A   Clear
4:35 PM 42.8 °F 41.1 °F 32.0 °F 66% 30.40 in 10.0 mi SSE 3.5 mph - N/A   Clear
4:55 PM 42.8 °F 41.1 °F 32.0 °F 66% 30.40 in 10.0 mi SSE 3.5 mph - N/A   Clear
5:15 PM 42.8 °F 40.1 °F 32.0 °F 66% 30.40 in 10.0 mi SE 4.6 mph - N/A   Clear
5:35 PM 42.8 °F 40.1 °F 32.0 °F 66% 30.40 in 10.0 mi SE 4.6 mph - N/A   Clear
5:55 PM 41.0 °F 37.1 °F 32.0 °F 70% 30.40 in 10.0 mi SE 5.8 mph - N/A   Clear
6:15 PM 39.2 °F 35.0 °F 32.0 °F 75% 30.40 in 10.0 mi ESE 5.8 mph - N/A   Clear
6:35 PM 37.4 °F 33.8 °F 32.0 °F 81% 30.40 in 10.0 mi ESE 4.6 mph - N/A   Clear
6:55 PM 35.6 °F 29.9 °F 32.0 °F 87% 30.40 in 10.0 mi ESE 6.9 mph - N/A   Clear
7:15 PM 35.6 °F 27.5 °F 32.0 °F 87% 30.38 in 10.0 mi SE 11.5 mph - N/A   Clear
7:55 PM 37.4 °F 30.3 °F 33.8 °F 87% 30.38 in 10.0 mi SE 10.4 mph - N/A   Clear
8:15 PM 35.6 °F 28.0 °F 32.0 °F 87% 30.38 in 7.0 mi SE 10.4 mph - N/A   Clear
8:35 PM 35.6 °F 28.6 °F 32.0 °F 87% 30.39 in 7.0 mi SE 9.2 mph - N/A   Clear
8:55 PM 35.6 °F 28.6 °F 32.0 °F 87% 30.39 in 7.0 mi SE 9.2 mph - N/A   Clear
9:15 PM 35.6 °F 28.6 °F 33.8 °F 93% 30.39 in 7.0 mi SE 9.2 mph - N/A   Clear
9:35 PM 35.6 °F 28.0 °F 33.8 °F 93% 30.39 in 7.0 mi SE 10.4 mph - N/A   Clear
9:55 PM 35.6 °F 28.6 °F 33.8 °F 93% 30.39 in 5.0 mi SE 9.2 mph - N/A   Clear
10:15 PM 35.6 °F 28.6 °F 33.8 °F 93% 30.39 in 5.0 mi SE 9.2 mph - N/A   Clear
10:35 PM 35.6 °F 28.6 °F 33.8 °F 93% 30.39 in 5.0 mi SE 9.2 mph - N/A   Clear
10:55 PM 35.6 °F 30.7 °F 33.8 °F 93% 30.40 in 5.0 mi SE 5.8 mph - N/A   Clear
11:15 PM 33.8 °F 27.7 °F 33.8 °F 100% 30.40 in 5.0 mi SE 6.9 mph - N/A   Clear
11:35 PM 33.8 °F 25.8 °F 33.8 °F 100% 30.40 in 4.0 mi SE 10.4 mph - N/A   Clear
11:55 PM 33.8 °F 26.4 °F 33.8 °F 100% 30.40 in 4.0 mi SE 9.2 mph - N/A   Clear